FW4679 Weather Reports


time (UTC)temp
C
wind
direction
speed
KPH
gust
KPH
rain 1hr
cm
rain 24hr
cm
rain mn
cm
humidity
%
barometer
mb
20260504081556 7 242 4.8 9.7 0.00 0.00 0.00 62 1016.1
20260504044538 8 224 1.6 4.8 0.00 0.00 0.00 63 1016.2
20260504043036 8 224 1.6 6.4 0.00 0.00 0.00 63 1016.3
20260504041533 8 224 3.2 6.4 0.00 0.00 0.00 61 1016.2
20260504040034 8 204 1.6 6.4 0.00 0.00 0.00 59 1016.3
20260504034530 9 205 1.6 4.8 0.00 0.00 0.00 60 1016.2
20260504033129 10 205 0.0 3.2 0.00 0.00 0.00 58 1016.3
20260504031529 10 205 1.6 6.4 0.00 0.00 0.00 57 1016.4
20260504030028 10 204 3.2 11.3 0.00 0.00 0.00 55 1016.3
20260504024528 10 205 3.2 4.8 0.00 0.00 0.00 55 1016.3
20260504023027 10 204 4.8 8.0 0.00 0.00 0.00 53 1016.4
20260504021526 10 229 4.8 8.0 0.00 0.00 0.00 54 1016.5
20260504020026 11 213 0.0 4.8 0.00 0.00 0.00 52 1016.3
20260504014525 11 213 1.6 4.8 0.00 0.00 0.00 48 1016.3
20260504013033 12 213 1.6 4.8 0.00 0.00 0.00 46 1016.2
20260504011528 12 213 1.6 6.4 0.00 0.00 0.00 43 1016.2
20260504010025 12 262 4.8 6.4 0.00 0.00 0.00 41 1016.0
20260504004528 13 301 0.0 6.4 0.00 0.00 0.00 40 1015.9
20260504003035 13 288 6.4 20.9 0.00 0.00 0.00 39 1015.9
20260504001525 13 218 3.2 8.0 0.00 0.00 0.00 40 1015.6
20260504000046 13 208 6.4 12.9 0.00 0.00 0.00 39 1015.4
20260503234522 13 273 6.4 12.9 0.00 0.00 0.00 39 1015.2
20260503233021 13 264 4.8 11.3 0.00 0.00 0.00 38 1015.2
20260503231521 13 234 6.4 14.5 0.00 0.00 0.00 38 1015.3
20260503230020 13 263 6.4 14.5 0.00 0.00 0.00 37 1015.2
20260503224519 13 270 3.2 11.3 0.00 0.00 0.00 39 1015.3
20260503223019 13 239 6.4 11.3 0.00 0.00 0.00 39 1015.4
20260503221518 13 244 4.8 14.5 0.00 0.00 0.00 39 1015.3
20260503220017 13 271 8.0 14.5 0.00 0.00 0.00 38 1015.7
20260503214517 12 254 8.0 17.7 0.00 0.00 0.00 41 1015.7
20260503213015 13 300 9.7 17.7 0.00 0.00 0.00 39 1015.6
20260503211516 12 231 11.3 20.9 0.00 0.00 0.00 41 1015.7
20260503210014 12 316 8.0 25.7 0.00 0.00 0.00 41 1015.7
20260503204512 12 296 20.9 33.8 0.00 0.00 0.00 39 1016.0
20260503203024 12 306 14.5 30.6 0.00 0.00 0.00 39 1016.0
20260503201512 13 294 17.7 29.0 0.00 0.00 0.00 36 1015.8
20260503200012 13 299 14.5 27.4 0.00 0.00 0.00 34 1015.8
20260503194514 13 280 16.1 27.4 0.00 0.00 0.00 34 1015.8
20260503193010 13 248 12.9 22.5 0.00 0.00 0.00 33 1016.2
20260503191509 13 268 17.7 29.0 0.00 0.00 0.00 33 1016.2
20260503190008 13 323 11.3 24.1 0.00 0.00 0.00 32 1016.2
20260503184507 12 315 9.7 30.6 0.00 0.00 0.00 32 1016.4
20260503183002 12 297 14.5 27.4 0.00 0.00 0.00 31 1016.6
20260503181502 12 345 20.9 29.0 0.00 0.00 0.00 30 1017.1
20260503180112 12 294 14.5 25.7 0.00 0.00 0.00 33 1017.1
20260503174555 12 300 11.3 27.4 0.00 0.00 0.00 33 1017.2
20260503173058 11 297 14.5 27.4 0.00 0.00 0.00 35 1017.6
20260503171550 11 309 9.7 25.7 0.00 0.00 0.00 36 1017.6